Caen, France

4:34 AM CEST on September 23, 2017 (GMT +0200)
Carpiquet

Weather History for LFRK - November, 2012

Change the Weather History Date:

Monday, November 5, 2012

  Actual Average Record
Temperature  
Mean Temperature 46 °F -  
Max Temperature 52 °F 49 °F 60 °F (2002)
Min Temperature 39 °F 39 °F 30 °F (2006)
Degree Days  
Heating Degree Days 20    
Moisture  
Dew Point 41 °F    
Average Humidity 88    
Maximum Humidity 100    
Minimum Humidity 69    
Precipitation  
Precipitation 0.28 in 0.11 in - ()
Sea Level Pressure  
Sea Level Pressure 29.67 in    
Wind  
Wind Speed 8 mph ()    
Max Wind Speed 15 mph    
Max Gust Speed -    
Visibility 6.4 miles    
Events Rain    
Averages and records for this station are not official NWS values.
T = Trace of Precipitation, MM = Missing Value Source: Averaged Metar Reports

Daily Weather History Graph

Daily Weather History Graph

Search for Another Location

Airport or City:

Trip Planner

Search our weather history database for the weather conditions in past years. The results will help you decide how hot, cold, wet, or windy it might be!

Date:

Astronomy

Nov. 05, 2012 Rise Set
Actual Time 7:56 AM CET 5:33 PM CET
Civil Twilight 7:22 AM CET 6:07 PM CET
Nautical Twilight 6:44 AM CET 6:45 PM CET
Astronomical Twilight 6:07 AM CET 7:22 PM CET
Moon 10:55 PM CET (11/5) 1:09 PM CET (11/5)
Length of Visible Light 10h 44m
Length of Day
9h 37m
Waning Gibbous, 65% of the Moon is Illuminated
Nov 5
Waning Gibbous
Nov 7
Last Quarter
Nov 13
New
Nov 20
First Quarter
Nov 28
Full

Hourly Weather History & Observations

Time (CET) Temp. Windchill Dew Point Humidity Pressure Visibility Wind Dir Wind Speed Gust Speed Precip Events Conditions
12:00 AM 42.8 °F 38.0 °F 41.0 °F 93% 29.47 in 6.2 mi SSW 8.1 mph - N/A   Unknown
12:30 AM 42.8 °F 37.5 °F 41.0 °F 93% 29.47 in 6.2 mi SSW 9.2 mph - N/A   Unknown
1:00 AM 42 °F - 40 °F 88% 29.51 in 34 mi SSW 9.2 mph - -   Clear
1:00 AM 42.8 °F 37.5 °F 39.2 °F 87% 29.47 in 6.2 mi SSW 9.2 mph - N/A   Unknown
1:30 AM 39.2 °F 35.0 °F 37.4 °F 93% 29.50 in 6.2 mi South 5.8 mph - N/A   Unknown
2:00 AM 39.2 °F 35.0 °F 37.4 °F 93% 29.50 in 6.2 mi South 5.8 mph - N/A   Unknown
2:30 AM 41.0 °F 34.7 °F 39.2 °F 93% 29.50 in 6.2 mi South 10.4 mph - N/A   Unknown
3:00 AM 41.0 °F 35.2 °F 39.2 °F 93% 29.50 in 6.2 mi SSW 9.2 mph - N/A   Unknown
3:30 AM 41.0 °F 35.2 °F 39.2 °F 93% 29.50 in 6.2 mi SSW 9.2 mph - N/A   Unknown
4:00 AM 41.0 °F 34.7 °F 39.2 °F 93% 29.50 in 6.2 mi SSW 10.4 mph - N/A   Unknown
4:30 AM 41.0 °F 35.8 °F 37.4 °F 87% 29.50 in 6.2 mi SW 8.1 mph - N/A   Unknown
5:00 AM 41.0 °F 35.2 °F 39.2 °F 93% 29.50 in 6.2 mi SSW 9.2 mph - N/A   Unknown
5:30 AM 42.8 °F 36.6 °F 39.2 °F 87% 29.50 in 6.2 mi SSW 11.5 mph - N/A   Unknown
6:00 AM 41.0 °F 35.2 °F 37.4 °F 87% 29.53 in - SW 9.2 mph - N/A   Clear
6:30 AM 41.0 °F 34.3 °F 39.2 °F 93% 29.53 in - SSW 11.5 mph - N/A   Clear
7:00 AM 41 °F - 39 °F 89% 29.56 in 19 mi SSW 10.4 mph - -   Scattered Clouds
7:00 AM 41.0 °F 34.7 °F 39.2 °F 93% 29.53 in 6.2 mi SSW 10.4 mph - N/A   Scattered Clouds
7:30 AM 42.8 °F 37.5 °F 41.0 °F 93% 29.53 in 6.2 mi SW 9.2 mph - N/A Rain Light Rain Showers
8:00 AM 44.6 °F 38.1 °F 41.0 °F 87% 29.56 in 6.2 mi WSW 13.8 mph - N/A Rain Light Rain Showers
8:30 AM 44.6 °F 38.8 °F 41.0 °F 87% 29.59 in 6.2 mi SW 11.5 mph - N/A   Mostly Cloudy
9:00 AM 44.6 °F 39.2 °F 41.0 °F 87% 29.56 in 6.2 mi SSW 10.4 mph - N/A Rain Light Rain Showers
9:30 AM 44.6 °F 38.8 °F 41.0 °F 87% 29.59 in 6.2 mi SW 11.5 mph - N/A   Scattered Clouds
10:00 AM 46.4 °F 41.1 °F 42.8 °F 87% 29.62 in 6.2 mi SW 11.5 mph - N/A   Mostly Cloudy
10:30 AM 46.4 °F 40.7 °F 42.8 °F 87% 29.62 in 6.2 mi SW 12.7 mph - N/A   Mostly Cloudy
11:00 AM 46.4 °F 41.1 °F 42.8 °F 87% 29.65 in 6.2 mi WSW 11.5 mph - N/A   Mostly Cloudy
11:30 AM 50.0 °F - 42.8 °F 76% 29.65 in 6.2 mi WSW 15.0 mph - N/A   Mostly Cloudy
12:00 PM 50.0 °F - 42.8 °F 76% 29.65 in 6.2 mi WSW 10.4 mph - N/A   Mostly Cloudy
12:30 PM 51.8 °F - 42.8 °F 71% 29.68 in 6.2 mi WSW 12.7 mph - N/A   Mostly Cloudy
1:00 PM 50 °F - 43 °F 69% 29.70 in 25 mi WSW 12.7 mph - -   Partly Cloudy
1:00 PM 50.0 °F - 42.8 °F 76% 29.68 in 6.2 mi WSW 11.5 mph - N/A   Mostly Cloudy
2:00 PM 48.2 °F - 41.0 °F 76% 29.71 in 6.2 mi SW 12.7 mph - N/A   Mostly Cloudy
2:30 PM 46.4 °F 42.9 °F 42.8 °F 87% 29.71 in 6.2 mi West 6.9 mph - N/A Rain Light Rain Showers
3:00 PM 46.4 °F 41.5 °F 41.0 °F 81% 29.71 in 6.2 mi NW 10.4 mph - N/A Rain Light Rain Showers
3:30 PM 46.4 °F 43.5 °F 42.8 °F 87% 29.74 in 6.2 mi West 5.8 mph - N/A Rain Light Rain
4:00 PM 46.4 °F 43.5 °F 42.8 °F 87% 29.74 in 6.2 mi West 5.8 mph - N/A   Mostly Cloudy
4:30 PM 46.4 °F 41.9 °F 41.0 °F 81% 29.77 in 6.2 mi NW 9.2 mph - N/A   Mostly Cloudy
5:00 PM 46.4 °F 43.5 °F 42.8 °F 87% 29.77 in 6.2 mi NNW 5.8 mph - N/A   Mostly Cloudy
5:30 PM 46.4 °F 42.9 °F 44.6 °F 93% 29.80 in 3.7 mi NW 6.9 mph - N/A Rain Light Rain Showers
6:00 PM 44.6 °F 42.2 °F 42.8 °F 93% 29.80 in 4.3 mi North 4.6 mph - N/A Rain Light Rain Showers
6:30 PM 44.6 °F 42.2 °F 42.8 °F 93% 29.83 in 6.2 mi North 4.6 mph - N/A Rain Light Rain
7:00 PM 45 °F - 43 °F 92% 29.86 in 6 mi North 4.6 mph - - Rain Light Rain
7:00 PM 44.6 °F 42.2 °F 42.8 °F 93% 29.83 in 6.2 mi North 4.6 mph - N/A Rain Light Rain
7:30 PM 44.6 °F - 42.8 °F 93% 29.86 in 6.2 mi Variable 2.3 mph - N/A Rain Light Rain
8:00 PM 44.6 °F 43.1 °F 42.8 °F 93% 29.89 in 6.2 mi NNW 3.5 mph - N/A   Light Drizzle
8:30 PM 44.6 °F 42.2 °F 42.8 °F 93% 29.89 in 6.2 mi NW 4.6 mph - N/A   Overcast
9:00 PM 44.6 °F 42.2 °F 42.8 °F 93% 29.92 in 6.2 mi WNW 4.6 mph - N/A   Overcast
9:30 PM 42.8 °F 41.1 °F 41.0 °F 93% 29.92 in 6.2 mi NW 3.5 mph - N/A   Unknown
10:00 PM 42.8 °F 41.1 °F 41.0 °F 93% 29.95 in 6.2 mi NW 3.5 mph - N/A   Unknown
10:30 PM 41.0 °F 39.0 °F 39.2 °F 93% 29.95 in 6.2 mi WNW 3.5 mph - N/A   Partly Cloudy
11:00 PM 39.2 °F - 37.4 °F 93% 29.95 in 6.2 mi WNW 2.3 mph - N/A   Partly Cloudy
11:30 PM 41.0 °F 38.0 °F 41.0 °F 100% 29.98 in 6.2 mi NW 4.6 mph - N/A   Mostly Cloudy